sat.trackr.live / text

‹ back to catalog

STARLINK-34266

NORAD 65093 · 2025-167R

PAYLOAD ACTIVE UNKNOWN

§ Identity

Operator
Country
US
Launch date
2025-08-04
Launch site
AFETR
Launch vehicle
Mass (kg)
RCS (m²)

Purposes: comms

External: N2YO · Heavens-Above · Gunter

§ Orbital elements

Epoch: 2026-09-19T21:15:17.541216Z

Period
93.85 min
Inclination
53.1576°
Eccentricity
0.0001679
Mean motion
15.34415184 rev/d
Perigee alt
461.5 km
Apogee alt
463.8 km
Semi-major
6,840.8 km
B*
4.3802e-4
RAAN
196.7112°
Arg perigee
85.6043°
Mean anomaly
274.5152°
Rev number
6,332

§ Raw data

STARLINK-342661 65093U 25167R   26262.88561969  .00014458  00000+0  43802-3 0  99952 65093  53.1576 196.7112 0001679  85.6043 274.5152 15.34415184 63324

JSON: /api/v1/satellites/65093 · /tle

For live sub-satellite position, see the globe view (requires WebGL).

§ Visibility from observer

Set your observer location to see the next 7 days of passes ≥ 10°. The values pass through the URL so the page stays shareable.

No JS? Fill the form by hand. The geolocation button needs JavaScript.